Flag for Germany Weather past 2 weeks in Pfaffenhofen an der Ilm, Bavaria, Germany

Now
37 °F

Chilly.


Feels Like: 30 °F
Forecast: 30 / 39 °F
Wind: 10 mph from Northwest

Location: Ingolstadt Airport

Current Time: Mar 4, 2015 at 4:51:19 AM

Latest Report: Mar 4, 2015 at 4:20 AM


Visibility: 4 mi

Pressure: 30.15 "Hg

Humidity: 87%

Dew point: 34 °F

Location of Pfaffenhofen an der IlmLocation

Historic Weather in Pfaffenhofen an der Ilm — Graph

°F

Pfaffenhofen an der Ilm temperature yesterday

Maximum temperature yesterday: 48 °F (at 3:20 PM)
Minimum temperature yesterday: 32 °F (at 5:20 AM)
Average temperature yesterday: 40 °F

Past Weeks' High & Low Weather Summary

 TemperatureHumidityPressure
High52 °F (Feb 20, 4:20 PM)100% (Feb 17, 3:20 AM)30.72 "Hg (Feb 17, 3:20 AM)
Low21 °F (Feb 20, 7:20 AM)41% (Feb 20, 4:20 PM)29.50 "Hg (Feb 21, 1:20 PM)
Average34 °F87%30.02 "Hg
* Reported Feb 17 3:20 AM — Mar 4 3:20 AM, Pfaffenhofen an der Ilm, Weather by CustomWeather, © 2015

Note: Actual official high and low records may vary slightly from our data, if they occured in-between our weather recording intervals... More about our weather records

Advertising

Pfaffenhofen an der Ilm weather history for previous 24 hours

 ConditionsComfort  
Time TempWeatherWind HumidityBarometerVisibility
3:20 AM
Wed, Mar 4
39 °FChilly.13 mph81%30.12 "Hg5 mi
2:20 AM43 °FQuite cool.15 mph66%30.09 "Hg4 mi
1:20 AM43 °FQuite cool.10 mph61%30.09 "Hg4 mi
12:20 AM43 °FQuite cool.6 mph61%30.09 "Hg4 mi
11:20 PM
Tue, Mar 3
43 °FQuite cool.6 mph61%30.09 "Hg4 mi
10:20 PM41 °FQuite cool.7 mph66%30.09 "Hg4 mi
9:20 PM43 °FQuite cool.6 mph57%30.09 "Hg4 mi
8:20 PM39 °FChilly.3 mph65%30.12 "Hg5 mi
7:20 PM41 °FQuite cool.5 mph57%30.09 "Hg4 mi
6:20 PM43 °FPassing clouds.6 mph57%30.12 "HgN/A
5:20 PM46 °FScattered clouds.8 mph50%30.12 "HgN/A
5:00 PM46 °FPassing clouds.7 mph50%30.12 "HgN/A
4:20 PM46 °FPassing clouds.7 mph50%30.12 "HgN/A
3:20 PM48 °FPassing clouds.14 mph43%30.15 "HgN/A
2:20 PM46 °FPassing clouds.10 mph46%30.15 "HgN/A
1:20 PM46 °FPassing clouds.12 mph50%30.18 "HgN/A
12:20 PM45 °FPassing clouds.18 mph53%30.21 "HgN/A
11:20 AM43 °FPassing clouds.16 mph61%30.21 "HgN/A
10:20 AM39 °FPassing clouds.15 mph70%30.21 "HgN/A
9:20 AM37 °FPassing clouds.10 mph75%30.21 "HgN/A
8:20 AM36 °FScattered clouds.9 mph75%30.18 "HgN/A
7:20 AM34 °FPartly sunny.8 mph81%30.18 "HgN/A
6:20 AM32 °FPassing clouds.10 mph80%30.15 "HgN/A
5:20 AM32 °FPassing clouds.7 mph87%30.15 "HgN/A
4:20 AM34 °FChilly.10 mph81%30.15 "Hg5 mi
Weather by CustomWeather, © 2015

See weather overviewHow to use our weather pages